Tracking 29059 objects as of 17-Jun-2024
HD Live streaming from Space Station
objects crossing your sky now

JILIN-01 GAOFEN 3D 29

Track JILIN-01 GAOFEN 3D 29 now!
10-day predictions


NORAD ID: 52446
Int'l Code: 2022-048D
Perigee: 490.0 km
Apogee: 505.1 km
Inclination: 97.6 °
Period: 94.4 minutes
Semi major axis: 6868 km
RCS: Unknown
Launch date: May 5, 2022
Source: People's Republic of China (PRC)
Launch site: Taiyaun Space Center, China (TSC)
Your satellite tracking list
Your tracking list is empty




NASA's NSSDC Master Catalog

Two Line Element Set (TLE):
1 52446U 22048D   24168.94002863  .00016588  00000-0  66327-3 0  9995
2 52446  97.5990 247.4824 0011017 122.9010 237.3289 15.25125185117185
Source of the keplerian elements: AFSPC